When you browse on this site, cookies collect data to enhance your experience and personalize the content and advertising you see.
Visit our Privacy Policy to learn more. By continuing to use the site, you agree to this use of cookies and data.

Hourly Weather Kerns

Today, 6 August, Thursday

Time Temperature Precipitation Wind Pressure Humidity
00:00 +20°C° 0 mm 3 mps 759 mmHg 98%
01:00 +20°C° 0 mm 3 mps 759 mmHg 97%
02:00 +20°C° 0 mm 3 mps 759 mmHg 97%
03:00 +19°C° 0 mm 2 mps 759 mmHg 97%
04:00 +19°C° 0 mm 2 mps 758 mmHg 97%
05:00 +19°C° 0 mm 2 mps 759 mmHg 97%
06:00 +19°C° 0 mm 2 mps 759 mmHg 97%
07:00 +19°C° 0 mm 2 mps 760 mmHg 97%
08:00 +21°C° 0 mm 3 mps 760 mmHg 87%
09:00 +24°C° 0 mm 3 mps 759 mmHg 76%
10:00 +26°C° 0 mm 3 mps 759 mmHg 65%
11:00 +27°C° 0 mm 3 mps 759 mmHg 61%
12:00 +28°C° 0 mm 3 mps 758 mmHg 56%
13:00 +29°C° 0 mm 3 mps 758 mmHg 52%
14:00 +29°C° 0 mm 3 mps 757 mmHg 55%
15:00 +28°C° 0 mm 3 mps 757 mmHg 58%
16:00 +28°C° 0 mm 3 mps 756 mmHg 61%
17:00 +26°C° 0 mm 3 mps 757 mmHg 70%
18:00 +24°C° 0 mm 3 mps 757 mmHg 79%
19:00 +22°C° 0 mm 3 mps 758 mmHg 88%
20:00 +23°C° 0 mm 2 mps 758 mmHg 89%
21:00 +21°C° 0 mm 2 mps 759 mmHg 90%
22:00 +21°C° 0 mm 2 mps 759 mmHg 91%
23:00 +21°C° 0.1 mm 2 mps 759 mmHg 90%

Tomorrow, 7 August, Friday

Time Temperature Precipitation Wind Pressure Humidity
00:00 +23°C° 0.1 mm 2 mps 759 mmHg 89%
01:00 +23°C° 0.1 mm 2 mps 759 mmHg 88%
02:00 +23°C° 0.4 mm 1 mps 758 mmHg 89%
03:00 +23°C° 0.4 mm 1 mps 758 mmHg 90%
04:00 +23°C° 0.4 mm 1 mps 758 mmHg 92%
05:00 +23°C° 0 mm 1 mps 758 mmHg 92%
06:00 +23°C° 0 mm 1 mps 758 mmHg 93%
07:00 +23°C° 0 mm 1 mps 759 mmHg 93%
08:00 +26°C° 0.1 mm 1 mps 759 mmHg 84%
09:00 +28°C° 0.1 mm 1 mps 759 mmHg 75%
10:00 +31°C° 0.1 mm 1 mps 759 mmHg 66%
11:00 +31°C° 0.2 mm 1 mps 758 mmHg 66%
12:00 +31°C° 0.2 mm 1 mps 758 mmHg 67%
13:00 +31°C° 0.2 mm 2 mps 757 mmHg 67%
14:00 +31°C° 0.2 mm 2 mps 757 mmHg 69%
15:00 +31°C° 0.2 mm 2 mps 756 mmHg 70%
16:00 +30°C° 0.2 mm 1 mps 756 mmHg 72%
17:00 +29°C° 0 mm 1 mps 756 mmHg 80%
18:00 +27°C° 0 mm 1 mps 757 mmHg 88%
19:00 +23°C° 0 mm 0 mps 757 mmHg 96%
20:00 +23°C° 0 mm 0 mps 758 mmHg 96%
21:00 +25°C° 0 mm 1 mps 758 mmHg 96%
22:00 +25°C° 0 mm 1 mps 759 mmHg 96%
23:00 +25°C° 0.1 mm 1 mps 758 mmHg 95%

Day after tomorrow, 8 August, Saturday

Time Temperature Precipitation Wind Pressure Humidity
00:00 +25°C° 0.1 mm 1 mps 758 mmHg 94%
01:00 +23°C° 0.1 mm 0 mps 758 mmHg 94%
02:00 +23°C° 0.1 mm 0 mps 758 mmHg 94%
03:00 +23°C° 0.1 mm 0 mps 758 mmHg 95%
04:00 +23°C° 0.1 mm 0 mps 758 mmHg 96%
05:00 +25°C° 0 mm 1 mps 758 mmHg 95%
06:00 +25°C° 0 mm 1 mps 758 mmHg 95%
07:00 +25°C° 0 mm 1 mps 759 mmHg 94%
08:00 +25°C° 0 mm 0 mps 759 mmHg 83%
09:00 +28°C° 0 mm 0 mps 759 mmHg 72%
10:00 +30°C° 0 mm 0 mps 759 mmHg 61%
11:00 +32°C° 0.4 mm 1 mps 759 mmHg 65%
12:00 +32°C° 0.4 mm 1 mps 758 mmHg 70%
13:00 +31°C° 0.4 mm 2 mps 757 mmHg 74%
14:00 +30°C° 0.7 mm 2 mps 757 mmHg 77%
15:00 +30°C° 0.7 mm 2 mps 757 mmHg 80%
16:00 +29°C° 0.7 mm 3 mps 757 mmHg 83%
17:00 +28°C° 0.3 mm 3 mps 757 mmHg 85%
18:00 +26°C° 0.3 mm 3 mps 757 mmHg 88%
19:00 +25°C° 0.3 mm 3 mps 758 mmHg 91%
20:00 +25°C° 0 mm 3 mps 758 mmHg 89%
21:00 +24°C° 0 mm 2 mps 759 mmHg 87%
22:00 +24°C° 0 mm 2 mps 760 mmHg 85%
23:00 +23°C° 0 mm 2 mps 759 mmHg 84%

9 August, Sunday

Time Temperature Precipitation Wind Pressure Humidity
00:00 +23°C° 0 mm 2 mps 759 mmHg 82%
01:00 +23°C° 0 mm 1 mps 759 mmHg 81%
02:00 +23°C° 0 mm 1 mps 759 mmHg 80%
03:00 +23°C° 0 mm 1 mps 759 mmHg 79%
04:00 +23°C° 0 mm 1 mps 759 mmHg 77%
05:00 +23°C° 0 mm 2 mps 759 mmHg 76%
06:00 +23°C° 0 mm 2 mps 759 mmHg 75%
07:00 +23°C° 0 mm 2 mps 760 mmHg 73%
08:00 +25°C° 0 mm 2 mps 760 mmHg 63%
09:00 +28°C° 0 mm 3 mps 760 mmHg 53%
10:00 +30°C° 0 mm 3 mps 761 mmHg 43%
11:00 +31°C° 0 mm 3 mps 760 mmHg 42%
12:00 +31°C° 0 mm 3 mps 759 mmHg 42%
13:00 +33°C° 0 mm 4 mps 759 mmHg 42%
14:00 +32°C° 0 mm 4 mps 758 mmHg 44%
15:00 +30°C° 0 mm 4 mps 758 mmHg 46%
16:00 +29°C° 0 mm 4 mps 758 mmHg 48%
17:00 +27°C° 0 mm 3 mps 758 mmHg 55%
18:00 +25°C° 0 mm 3 mps 758 mmHg 62%
19:00 +21°C° 0 mm 3 mps 759 mmHg 69%
20:00 +21°C° 0 mm 3 mps 759 mmHg 70%
21:00 +20°C° 0 mm 2 mps 760 mmHg 71%
22:00 +20°C° 0 mm 2 mps 760 mmHg 72%
23:00 +20°C° 0 mm 2 mps 760 mmHg 71%

10 August, Monday

Time Temperature Precipitation Wind Pressure Humidity
00:00 +19°C° 0 mm 2 mps 760 mmHg 71%
01:00 +19°C° 0 mm 2 mps 760 mmHg 70%
02:00 +19°C° 0 mm 2 mps 760 mmHg 70%
03:00 +19°C° 0 mm 2 mps 760 mmHg 71%
04:00 +19°C° 0 mm 2 mps 759 mmHg 72%
05:00 +18°C° 0 mm 2 mps 760 mmHg 73%
06:00 +18°C° 0 mm 2 mps 760 mmHg 74%
07:00 +18°C° 0 mm 2 mps 761 mmHg 75%
08:00 +21°C° 0 mm 3 mps 761 mmHg 66%
09:00 +25°C° 0 mm 3 mps 761 mmHg 57%
10:00 +27°C° 0 mm 4 mps 762 mmHg 49%
11:00 +28°C° 0 mm 4 mps 761 mmHg 48%
12:00 +29°C° 0 mm 5 mps 760 mmHg 46%
13:00 +30°C° 0 mm 5 mps 760 mmHg 45%
14:00 +29°C° 0 mm 5 mps 759 mmHg 46%
15:00 +28°C° 0 mm 5 mps 759 mmHg 46%
16:00 +27°C° 0 mm 5 mps 759 mmHg 47%
17:00 +23°C° 0 mm 5 mps 759 mmHg 53%
18:00 +21°C° 0 mm 4 mps 760 mmHg 59%
19:00 +19°C° 0 mm 4 mps 760 mmHg 66%
20:00 +18°C° 0 mm 3 mps 761 mmHg 66%
21:00 +17°C° 0 mm 3 mps 761 mmHg 67%
22:00 +17°C° 0 mm 3 mps 762 mmHg 67%
23:00 +17°C° 0 mm 2 mps 762 mmHg 67%

11 August, Tuesday

Time Temperature Precipitation Wind Pressure Humidity
00:00 +16°C° 0 mm 2 mps 762 mmHg 66%
01:00 +16°C° 0 mm 2 mps 761 mmHg 65%
02:00 +16°C° 0 mm 2 mps 761 mmHg 66%
03:00 +16°C° 0 mm 2 mps 761 mmHg 67%
04:00 +16°C° 0 mm 2 mps 761 mmHg 68%
05:00 +16°C° 0 mm 2 mps 761 mmHg 70%
06:00 +16°C° 0 mm 2 mps 762 mmHg 72%
07:00 +16°C° 0 mm 3 mps 762 mmHg 73%
08:00 +19°C° 0 mm 3 mps 762 mmHg 66%
09:00 +22°C° 0 mm 3 mps 763 mmHg 58%
10:00 +26°C° 0 mm 3 mps 763 mmHg 51%
11:00 +27°C° 0 mm 3 mps 762 mmHg 50%
12:00 +27°C° 0 mm 4 mps 761 mmHg 49%
13:00 +28°C° 0 mm 4 mps 761 mmHg 49%
14:00 +27°C° 0 mm 4 mps 761 mmHg 52%
15:00 +27°C° 0 mm 4 mps 760 mmHg 55%
16:00 +26°C° 0 mm 4 mps 760 mmHg 58%
17:00 +23°C° 0 mm 4 mps 760 mmHg 67%
18:00 +21°C° 0 mm 4 mps 761 mmHg 76%
19:00 +19°C° 0 mm 4 mps 761 mmHg 84%
20:00 +18°C° 0 mm 3 mps 762 mmHg 86%
21:00 +18°C° 0 mm 3 mps 762 mmHg 89%
22:00 +17°C° 0 mm 3 mps 763 mmHg 91%
23:00 +17°C° 0 mm 3 mps 763 mmHg 90%
Show more